Regional Weather Roundup
Issued by NWS Portland, ME

Current Version | Previous Version | Text Only | Print | Product List | Glossary Off
Versions: 1 2 3 4 5 6 7 8 9 10 11 12 13 14 15 16 17 18 19 20 21 22 23 24 25 26 27 28 29 30 31 32 33 34 35 36 37 38 39 40 41 42 43 44 45 46 47 48 49 50
000 ASUS41 KGYX 230410 RWRGYX WEATHER ROUNDUP FOR MAINE AND NEW HAMPSHIRE NATIONAL WEATHER SERVICE GRAY ME 1200 AM EDT MON APR 23 2018 MEZ002-005-006-010-012-015-018-020-021-024-026-027-029-230500- MAINE CITY SKY/WX TMP DP RH WIND PRES REMARKS PORTLAND FAIR 43 19 38 VRB6 30.38S SANFORD FAIR 29 28 96 CALM 30.40R BAR HARBOR FAIR 42 15 33 NW5 30.36R WISCASSET FAIR 33 25 72 CALM 30.39R ROCKLAND FAIR 41 18 39 NW3 30.37R FRYEBURG FAIR 28 23 81 SW5 30.39S LEWISTONAUBURN FAIR 40 18 41 CALM 30.39R AUGUSTA FAIR 43 14 31 NW6 30.37S WATERVILLE FAIR 40 17 39 NW7 30.35R BANGOR FAIR 42 14 32 NW7 30.36R GREENVILLE N/A 37 16 42 NW8 30.31S MILLINOCKET FAIR 33 19 56 CALM 30.35S HOULTON FAIR 26 22 84 CALM 30.31R PRESQUE ISLE FAIR 27 20 75 CALM 30.32S FRENCHVILLE FAIR 40 14 34 NW7 30.29S CARIBOU FAIR 36 13 38 NW6 30.30R $$ NHZ002-005-008-009-011-012-014-230500- NEW HAMPSHIRE CITY SKY/WX TMP DP RH WIND PRES REMARKS PORTSMOUTH CLEAR 44 17 33 CALM 30.37R ROCHESTER FAIR 41 20 43 NW5 30.38R NASHUA FAIR 38 24 57 NW6 30.40R MANCHESTER FAIR 45 22 40 CALM 30.38R CONCORD FAIR 35 22 58 CALM 30.40R LACONIA FAIR 37 25 61 CALM 30.40R PLYMOUTH FAIR 31 26 80 CALM 30.41R BERLIN FAIR 27 22 81 CALM 30.39R WHITEFIELD FAIR 27 22 81 CALM 30.40R JAFFREY FAIR 30 25 81 CALM 30.39R KEENE FAIR 31 23 72 CALM 30.41R LEBANON FAIR 30 21 69 CALM 30.41R MT WASHINGTON CLEAR 19 9 63 N31G40 N/A WCI 0 $$ VTZ005-007-008-230500- VERMONT CITY SKY/WX TMP DP RH WIND PRES REMARKS ST JOHNSBURY N/A 31 24 75 MISG 30.40R MONTPELIER FAIR 31 21 66 CALM 30.43S BURLINGTON FAIR 37 24 59 SE3 30.40S $$ MAZ007-012-024-CTZ003-RIZ002-NYZ038-NYZ072-230500- SOUTHERN NEW ENGLAND AND NY CITY SKY/WX TMP DP RH WIND PRES REMARKS BOSTON FAIR 50 24 36 N7 30.39R WORCESTER FAIR 47 13 25 N6 30.38R NANTUCKET FAIR 40 38 93 SW8 30.39S PROVIDENCE FAIR 45 35 68 W5 30.39R HARTFORD FAIR 39 24 55 CALM 30.39R ALBANY FAIR 45 18 34 N3 30.41R NEW YORK CITY FAIR 51 30 44 S7 30.39R $$ ANZ081-ANZ082-ANZ150-NHZ014-MEZ023>029-230500- COASTAL MARINE OBSERVATIONS STATION/POSITION TIME TEMP WIND PRES WAVE AIR SEA DIR/SP/G HT/PER (UTC) (F) (DEG/KT/KT) (MB) (FT/S) MOUNT DESERT ROC 0400 43 290/ 12/ 12 1027.8R JEFFREYS LEDGE 0336 42 N/A 1/ 3 CASHES LEDGE BUO 0350 42 42 1028.6R 1/ 3 $$ .............KEY.............. WCI - WIND CHILL TC - TEMPERATURE IN CELSIUS VSB - VISIBILITY IN MILES HX - HEAT INDEX FAIR- INDICATES FEW OR NO CLOUDS BELOW 12,000 FT, WITH NO SIGNIFICANT WEATHER AND/OR OBSTRUCTIONS TO VISIBILITY.

USA.gov is the U.S. government's official web portal to all federal, state and local government web resources and services.